Regional Weather Roundup
Issued by NWS

Home | Current Version | Previous Version | Graphics & Text | Print | Product List | Glossary On
Versions: 1 2 3 4 5 6 7 8 9 10 11 12 13 14 15 16 17 18 19 20 21 22 23 24 25 26 27
000
ASUS45 KBOU 241807
RWRCO

WEATHER ROUNDUP FOR COLORADO
NATIONAL WEATHER SERVICE DENVER/BOULDER CO
1200 PM MDT WED AUG 24 2016

NOTE: "FAIR" INDICATES FEW OR NO CLOUDS BELOW 12000 FEET WITH NO
SIGNIFICANT WEATHER AND/OR OBSTRUCTIONS TO VISIBILITY.

COZ001>005-013-030-031-241900-
...NORTHWEST COLORADO...

CITY           SKY/WX    TMP DP  RH WIND       PRES   REMARKS
CRAIG          FAIR      76  41  28 NW12      30.22F
HAYDEN         FAIR      70  39  32 S3        30.24F
MEEKER         FAIR      73  41  31 VRB3      30.23F
MOUNT WERNER   NOT AVBL
STEAMBOAT SPGS FAIR      67  41  39 W3        30.25F
WALDEN         FAIR      61  32  33 SE5       30.33F
$$

COZ006>008-011-241900-
...WEST CENTRAL VALLEYS...

CITY           SKY/WX    TMP DP  RH WIND       PRES   REMARKS
GRAND JUNCTION FAIR      75  47  36 MISG      30.18F
MONTROSE       FAIR      71  46  40 VRB3      30.25F
EAGLE          SUNNY     66  39  37 CALM      30.28F
RIFLE          FAIR      70  49  47 NE5       30.22F
DELTA          FAIR      74  46  37 S6        30.22F
NUCLA          NOT AVBL
$$

COZ017>023-064>068-241900-
...SOUTHWEST COLORADO...

CITY           SKY/WX    TMP DP  RH WIND       PRES   REMARKS
DURANGO        FAIR      62  51  67 VRB6      30.31F
CORTEZ         FAIR      67  52  58 SW10      30.27F
PAGOSA SPRINGS PTSUNNY   59  46  63 CALM      30.36F
TELLURIDE      FAIR      59  46  61 W3        30.45S
WOLF CREEK PAS CLOUDY    43  37  81 N5        30.59S
$$

COZ009-010-012-014-032>034-037-058>063-241900-
...CENTRAL COLORADO...

CITY           SKY/WX    TMP DP  RH WIND       PRES   REMARKS
ASPEN          FAIR      65  43  44 VRB5      30.32F
BUENA VISTA    CLOUDY    55  46  70 CALM      30.38S
COPPER MTN     SNOW      39  36  87 N3        30.58R VSB 1/2
BERTHOUD PASS  SNOW      32  19  59 CALM      30.60S VSB<1/4
COTTONWOOD PAS CLOUDY    54  45  71 E3        30.47S
GUNNISON       FAIR      61  46  59 S5        30.38F
KREMMLING      FAIR      63  41  45 CALM      30.34F
LEADVILLE      FAIR      48  41  76 NE6       30.46S
MONARCH PASS   CLOUDY    41  37  87 CALM      30.66S FOG
SALIDA         CLOUDY    58  47  68 CALM      30.44F
SUNLIGHT       FAIR      54  45  71 CALM      30.54S
WILKERSON PASS LGT RAIN  41  37  87 CALM      30.56S VSB 1/4
$$

COZ069>075-241900-
...SAN LUIS VALLEY/SANGRE DE CRISTO MOUNTAINS...

CITY           SKY/WX    TMP DP  RH WIND       PRES   REMARKS
ALAMOSA        FAIR      64  44  48 VRB5      30.32F
LA VETA PASS   CLOUDY    52  43  71 S5        30.47F
SAGUACHE       CLOUDY    61  43  51 N7        30.36F
$$

COZ035-036-038>040-241900-
...NORTHERN COLORADO FRONT RANGE...

CITY           SKY/WX    TMP DP  RH WIND       PRES   REMARKS
DENVER INTL AP CLOUDY    66  45  46 S7        30.27R
DMNS CITY PARK   N/A     60  53  77 S3        30.28S
AURORA         PTSUNNY   64  46  52 S7        30.29R
FRONT RANGE AP CLOUDY    66  46  48 S13G18    30.28S
ERIE MUNI ARPT CLOUDY    66  50  56 NW10      30.26S
BOULDER MUN AP LGT RAIN  63  48  59 N10       30.28S
CENTENNIAL     LGT RAIN  61  50  67 SW6       30.29S
BROOMFIELD     CLOUDY    64  50  59 NW8       30.29S
FORT COLLINS   FAIR      63  52  67 E3        30.27F
LONGMONT       FAIR      66  49  54 N8        30.29S HAZE
$$

COZ041-046-047-076>085-087-088-241900-
...PIKES PEAK/PALMER DIVIDE AND SOUTHERN FOOTHILLS...

CITY           SKY/WX    TMP DP  RH WIND       PRES   REMARKS
COLO. SPRINGS  CLOUDY    68  42  38 N6        30.29F
A. F. ACADEMY  CLOUDY    63  43  48 NW6       30.30F
SCHRIEVER AFB  NOT AVBL
ELLICOTT       FAIR       1  32 100 E5        30.26F WCI  -9
FALCON         CLOUDY    65  42  43 E6        30.33F
FORT CARSON    NOT AVBL
LIMON          PTSUNNY   70  36  28 NE13G18   30.25S
MONUMENT HILL  CLOUDY    57  45  62 E7        30.35F
TRINIDAD       CLOUDY    73  45  36 E8        30.23F
$$

COZ042>045-048>051-090-091-241900-
...NORTHEAST COLORADO...

CITY           SKY/WX    TMP DP  RH WIND       PRES   REMARKS
GREELEY ARPT   CLOUDY    66  45  45 NE8       30.26F
AKRON          FAIR      69  37  30 E9        30.25S
BURLINGTON     LGT RAIN  61  47  59 N14       30.20R
WRAY           FAIR      73  34  23 E13G18    30.20R
STERLING       LGT RAIN  64  52  63 CALM      30.23R
HOLYOKE        FAIR      73  41  31 N6        30.23R
FORT MORGAN    CLOUDY    68  43  39 E8        30.25F
$$

COZ086-089-092>099-241900-
...SOUTHEAST COLORADO...

CITY           SKY/WX    TMP DP  RH WIND       PRES   REMARKS
PUEBLO         FAIR      77  45  32 CALM      30.18F
LA JUNTA       FAIR      77  49  37 E8        30.15F
LAMAR          PTSUNNY   79  46  31 N14       30.11S
SPRINGFIELD      N/A     76  53  44 N13       30.13F
$$




USA.gov is the U.S. government's official web portal to all federal, state and local government web resources and services.